FW9372 Weather Reports


Display with metric or nautical units.
time (UTC)temp
F
wind
direction
speed
MPH
gust
MPH
rain 1hr
in
rain 24hr
in
rain mn
in
humidity
%
barometer
mb
20260507020059 49 0 0.0 0.0 0.00 0.34 0.17 88 1012.9
20260507014605 49 0 0.0 0.0 0.00 0.35 0.17 87 1012.7
20260507013117 50 0 0.0 0.0 0.00 0.35 0.17 86 1012.5
20260507011609 52 0 0.0 0.0 0.00 0.35 0.17 84 1012.2
20260507010108 53 0 0.0 0.0 0.00 0.35 0.17 83 1012.3
20260507004557 54 0 0.0 0.0 0.00 0.36 0.17 81 1012.2
20260507003059 55 0 0.0 0.0 0.00 0.36 0.17 78 1012.1
20260507001558 56 0 0.0 0.0 0.00 0.36 0.17 78 1012.2
20260507000059 57 0 0.0 0.0 0.00 0.36 0.17 74 1012.2
20260506234558 57 0 0.0 0.0 0.00 0.37 0.17 68 1012.0
20260506233112 58 0 0.0 0.0 0.00 0.37 0.17 66 1011.9
20260506231613 58 0 0.0 0.0 0.00 0.37 0.17 66 1011.8
20260506230106 58 0 0.0 0.0 0.00 0.37 0.17 64 1011.9
20260506224556 59 0 0.0 0.0 0.00 0.51 0.17 67 1012.2
20260506223055 59 0 0.0 0.0 0.00 0.51 0.17 65 1012.2
20260506221600 59 0 0.0 0.0 0.00 0.51 0.17 64 1012.0
20260506220100 59 0 0.0 0.0 0.00 0.51 0.17 64 1011.7
20260506214600 59 0 0.0 0.0 0.00 0.65 0.17 65 1011.5
20260506213056 59 0 0.0 1.0 0.00 0.65 0.17 66 1011.4
20260506211608 59 0 0.0 2.0 0.00 0.65 0.17 63 1011.2
20260506210056 60 0 0.0 0.0 0.00 0.65 0.17 65 1011.6
20260506204555 60 0 0.0 1.0 0.00 0.68 0.17 64 1012.2
20260506203058 60 0 0.0 0.0 0.00 0.68 0.17 63 1011.9
20260506201604 61 0 0.0 0.0 0.00 0.68 0.17 60 1011.8
20260506200059 61 0 0.0 1.0 0.00 0.68 0.17 60 1011.9
20260506194609 62 0 0.0 5.0 0.00 0.84 0.17 60 1011.6
20260506193058 61 0 0.0 2.0 0.00 0.84 0.17 60 1011.6
20260506191557 61 0 0.0 3.0 0.00 0.84 0.17 59 1011.9
20260506190059 61 0 0.0 1.0 0.00 0.84 0.17 57 1011.9
20260506184607 61 0 0.0 4.0 0.00 0.91 0.17 58 1011.5
20260506183059 61 0 0.0 0.0 0.00 0.91 0.17 57 1011.6
20260506181556 60 0 0.0 0.0 0.00 0.91 0.17 58 1011.4
20260506174556 61 0 0.0 4.0 0.00 0.92 0.17 60 1011.6
20260506173108 60 0 0.0 0.0 0.00 0.92 0.17 62 1011.7
20260506171558 60 0 0.0 3.0 0.00 0.92 0.17 61 1011.8
20260506170105 60 0 0.0 4.0 0.00 0.92 0.17 63 1011.6
20260506164613 59 0 0.0 2.0 0.00 0.92 0.17 63 1011.8
20260506163102 59 0 0.0 0.0 0.00 0.92 0.17 64 1012.2
20260506161556 57 0 0.0 2.0 0.00 0.92 0.17 63 1012.1
20260506160108 57 0 0.0 0.0 0.00 0.92 0.17 66 1012.2
20260506154558 56 0 0.0 1.0 0.00 0.92 0.17 73 1012.4
20260506153101 55 0 0.0 1.0 0.00 0.92 0.17 72 1012.1
20260506151556 54 53 0.0 6.0 0.00 0.92 0.17 70 1011.9
20260506150057 54 0 0.0 1.0 0.00 0.92 0.17 75 1011.5
20260506144600 52 0 0.0 3.0 0.00 0.92 0.17 78 1011.5
20260506143055 51 0 0.0 4.0 0.00 0.92 0.17 79 1011.4
20260506141612 51 0 0.0 3.0 0.00 0.92 0.17 77 1011.3
20260506140058 50 0 0.0 1.0 0.00 0.92 0.17 83 1011.3
20260506134559 50 0 0.0 1.0 0.00 0.92 0.17 85 1011.1
20260506133107 49 0 0.0 0.0 0.00 0.92 0.17 90 1010.9
20260506131556 48 0 0.0 0.0 0.00 0.92 0.17 95 1011.0
20260506130106 47 0 0.0 0.0 0.00 0.92 0.17 97 1010.7
20260506124600 46 0 0.0 0.0 0.00 0.92 0.17 98 1010.5
20260506123058 46 0 0.0 0.0 0.00 0.92 0.17 98 1010.3
20260506121614 46 0 0.0 0.0 0.00 0.92 0.17 98 1010.2
20260506120119 45 0 0.0 0.0 0.00 0.92 0.17 98 1010.3
20260506114558 45 0 0.0 0.0 0.00 0.92 0.17 98 1010.0
20260506113106 45 0 0.0 0.0 0.00 0.92 0.17 98 1009.9
20260506111600 45 0 0.0 0.0 0.00 0.92 0.17 98 1009.7
20260506110058 46 0 0.0 0.0 0.00 0.92 0.17 98 1009.4
20260506104559 46 0 0.0 1.0 0.00 0.92 0.17 98 1009.0
20260506103059 47 0 0.0 7.0 0.00 0.92 0.17 98 1008.9
20260506101558 47 0 0.0 2.0 0.00 0.92 0.17 98 1008.7
20260506100057 48 0 0.0 1.0 0.00 0.92 0.17 98 1008.6
20260506094558 48 0 0.0 1.0 0.00 0.92 0.17 98 1008.2
20260506093056 48 0 0.0 0.0 0.00 0.92 0.17 98 1007.8
20260506091559 48 0 0.0 0.0 0.00 0.92 0.17 98 1008.0
20260506090056 48 0 0.0 0.0 0.01 0.92 0.17 98 1007.6
20260506084555 48 0 0.0 0.0 0.01 0.92 0.17 98 1007.6
20260506083058 48 0 0.0 0.0 0.01 0.92 0.17 98 1007.7
20260506081555 48 0 0.0 1.0 0.01 0.92 0.17 98 1007.2
20260506073101 49 0 0.0 1.0 0.03 0.91 0.16 98 1006.2
20260506071602 49 0 0.0 6.0 0.04 0.91 0.16 98 1006.6
20260506070117 49 0 0.0 1.0 0.08 0.91 0.16 98 1006.8
20260506061603 50 0 0.0 7.0 0.10 0.87 0.12 97 1006.4
20260506050114 52 0 0.0 8.0 0.09 0.75 0.00 96 1005.1
20260506044602 53 21 0.0 4.0 0.10 0.74 0.74 96 1005.1
20260506043056 55 0 0.0 6.0 0.10 0.70 0.70 96 1005.1
20260506041600 56 0 0.0 4.0 0.08 0.67 0.67 96 1004.7
20260506040101 58 0 0.0 1.0 0.07 0.66 0.66 96 1004.6
20260506034556 59 0 0.0 0.0 0.06 0.64 0.64 97 1004.6
20260506033056 60 0 0.0 0.0 0.02 0.60 0.60 96 1004.4
20260506031602 60 0 0.0 7.0 0.01 0.58 0.58 96 1004.2
20260506030112 60 0 0.0 2.0 0.01 0.58 0.58 96 1004.3
20260506024556 60 0 0.0 2.0 0.01 0.58 0.58 96 1004.4
20260506023057 60 0 0.0 0.0 0.01 0.58 0.58 96 1004.3
20260506021558 60 0 0.0 5.0 0.01 0.58 0.58 97 1004.6